Location: Fornova de Taro
(44.7000°N, 10.1000°E)
Time: 22:13:07
(UTC+00:00)

Cosmos 2237 Rocket - Pass Details

Date: 26 May 2022
Orbit: 834 x 851 km, 71.0° (Epoch: 03 July)

Event Time Altitude Azimuth Distance (km) Brightness Sun altitude
Exits shadow 01:11:49 25° 251° (WSW) 1,656 3.3 -19.1°
Maximum altitude 01:14:35 41° 304° (WNW) 1,222 3.0 -18.9°
Drops below altitude 10° 01:19:58 10° 14° (NNE) 2,485 5.8 -18.4°
Sets 01:22:35 0° 21° (NNE) 3,426 7.0 -18.2°
